Current weather by "City, St" or "zip code"  
 
Advertise Here

Current Conditions: Roanoke, Roanoke Regional Airport, VA

Mostly Cloudy


85.0 F

Last Updated on Aug 4 2020, 5:54 pm EDT
Humidity: 48%
Wind Speed: W 5.8 mph
Barometer 29.95 in
Dewpoint: 63.0 F
Visibility: 9.00 mi
Precip: --
Heat Index: 86 F
Wind Chill: NA
Current conditions at:

Roanoke, Roanoke Regional Airport, VA (KROA)

Lat: 37.31694 Lon: 79.97417

Local Radar Image active severe weather and emergency alerts image image weather storm and storm spotter reports image weather observation monitoring service image
Local
Radar
Active
Alerts
Storm Reports Obs
Monitoring

Sign-up For Email & Text Message Weather Alert Notification Services


Advertise Here

Observation History for Roanoke, Roanoke Regional Airport, VA


Time Wind
(mph)
Vis
(mi)
Weather Precip (in) Temperature (F) Relative
Humidity
Wind
Chill
(F)
Heat
Index
(F)
Pressure
Air Dwpt altimeter
(in)
sea level
(mb)
Rmks
5:54 pm EDT W 5.8 9.00 Mostly Cloudy -- 85.0 63.0 48% NA 86 29.95 1012.8
4:54 pm EDT W 11.5 10.00 Partly Cloudy -- 88.0 62.1 42% NA 88 29.94 1012.5
3:54 pm EDT W 11.5 10.00 A Few Clouds -- 88.0 62.1 42% NA 88 29.95 1012.8
2:54 pm EDT SW 11.5 10.00 A Few Clouds -- 87.0 63.0 45% NA 88 29.95 1012.8
1:54 pm EDT 5.8 10.00 Partly Cloudy -- 85.0 64.9 51% NA 87 29.95 1012.7
12:54 pm EDT W 9.2 10.00 Partly Cloudy -- 85.0 66.0 53% NA 87 29.95 1012.7
11:54 am EDT 5.8 10.00 Mostly Cloudy -- 83.0 64.9 55% NA 85 29.95 1012.8
10:54 am EDT 6.9 10.00 Mostly Cloudy -- 79.0 66.9 67% NA NA 29.94 1012.6
9:54 am EDT W 10.4 10.00 Partly Cloudy -- 77.0 66.9 71% NA NA 29.93 1012.4
8:54 am EDT W 9.2 10.00 A Few Clouds -- 74.0 66.0 76% NA NA 29.92 1011.9
7:54 am EDT 3.5 10.00 A Few Clouds -- 71.0 66.0 84% NA NA 29.90 1011.4
6:54 am EDT W 4.6 10.00 A Few Clouds -- 69.0 66.0 90% NA NA 29.88 1010.7
5:54 am EDT SW 3.5 10.00 Mostly Cloudy -- 69.0 66.0 90% NA NA 29.88 1010.6
4:54 am EDT NW 3.5 10.00 Partly Cloudy -- 69.0 66.9 93% NA NA 29.88 1010.6
3:54 am EDT N 5.8 10.00 Overcast -- 70.0 66.9 90% NA NA 29.90 1011.2
2:54 am EDT N 6.9 9.00 Light Rain Trace 70.0 68.0 93% NA NA 29.93 1012.5
1:54 am EDT N 4.6 10.00 Overcast Trace 70.0 68.0 93% NA NA 29.97 1013.9
12:54 am EDT E 3.5 10.00 Overcast -- 71.0 66.9 87% NA NA 29.99 1014.4
11:54 pm EDT E 5.8 10.00 Overcast -- 71.0 66.9 87% NA NA 30.02 1015.3
10:54 pm EDT E 5.8 10.00 Overcast -- 71.0 66.9 87% NA NA 30.05 1016.4
9:54 pm EDT E 9.2 10.00 Overcast -- 71.0 66.9 87% NA NA 30.05 1016.6
8:54 pm EDT SE 4.6 10.00 Overcast Trace 72.0 66.9 84% NA NA 30.04 1016.1
7:54 pm EDT SE 6.9 10.00 Light Rain Trace 72.0 68.0 87% NA NA 30.04 1016.0
6:54 pm EDT S 5.8 10.00 Overcast -- 72.0 66.9 84% NA NA 30.03 1015.7

Regional Weather Observation


Lewisburg / Greenbrier, WV (KLWB)

Clear
77.0 F

Roanoke, Roanoke Regional Airport, VA (KROA)

Mostly Cloudy
85.0 F

Dublin / New River Valley, VA (KPSK)

Overcast
79.0 F

Hot Springs / Ingalls, VA (KHSP)

Fair
76.0 F

Lynchburg, Lynchburg Regional Airport, VA (KLYH)

Fair
87.0 F

Beckley, Raleigh County Memorial Airport, WV (KBKW)

Overcast
73.0 F